[Iaude] MPEC A15: 2023 YX1 [a=1.07,e=0.29,i=22.9,H=24.8]

mpec at marsden.cfa.harvard.edu mpec at marsden.cfa.harvard.edu
Tue Jan 2 13:38:08 EST 2024


M.P.E.C. 2024-A15                               Issued 2024 January 2, 18:36 UT

     The Minor Planet Electronic Circulars contain information on unusual
         minor planets, routine data on comets and natural satellites,
         and occasional editorial announcements.  They are published
    on behalf of Division F of the International Astronomical Union by the
          Minor Planet Center, Smithsonian Astrophysical Observatory,
                          Cambridge, MA 02138, U.S.A.
			  
             Prepared using the Tamkin Foundation Computer Network

                              MPC at CFA.HARVARD.EDU
            URL https://www.minorplanetcenter.net/    ISSN 1523-6714

                                    2023 YX1                                    


Observations:
     K23Y01X*KC2023 12 31.79780 05 06 36.87 +66 56 51.6          20.2 GXEA015L51
     K23Y01X KC2023 12 31.79883 05 06 34.76 +66 56 42.1          19.7 GXEA015L51
     K23Y01X KC2023 12 31.79986 05 06 32.73 +66 56 32.6          19.7 GXEA015L51
     K23Y01X KC2023 12 31.84068 05 05 08.98 +66 49 45.1          19.8 GXEA015L51
     K23Y01X KC2023 12 31.84373 05 05 03.01 +66 49 15.3          19.7 GXEA015L51
     K23Y01X KC2023 12 31.84671 05 04 56.84 +66 48 45.5          19.7 GXEA015L51
     K23Y01X KC2024 01 01.00024 04 59 50.95 +66 21 34.7                VEA015204
     K23Y01X KC2024 01 01.00912 04 59 32.92 +66 19 54.8                VEA015204
     K23Y01X KC2024 01 01.01846 04 59 13.93 +66 18 08.9          20.0 GVEA015204
     K23Y01X mC2024 01 01.24234104 52 11.060+65 36 30.53         19.86GVEA015I52
     K23Y01X mC2024 01 01.24269104 52 10.340+65 36 26.03         19.93GVEA015I52
     K23Y01X mC2024 01 01.24303404 52 09.599+65 36 22.07         19.95GVEA015I52
     K23Y01X mC2024 01 01.24337804 52 08.900+65 36 18.14         20.11GVEA015I52
     K23Y01X KC2024 01 01.24408304 52 07.399+65 36 09.50         19.77GVEA015I52
     K23Y01X KC2024 01 01.24511704 52 05.228+65 35 57.08         20.11GVEA015I52
     K23Y01X KC2024 01 01.24614804 52 03.108+65 35 44.30         19.96GVEA015I52
     K23Y01X KC2024 01 01.24718304 52 00.930+65 35 31.99         19.80GVEA015I52
     K23Y01X KC2024 01 01.69683 04 37 41.77 +63 55 08.0          19.7 VZEA015M38
     K23Y01X KC2024 01 01.71839 04 36 58.10 +63 50 07.8          19.8 VZEA015M38
     K23Y01X KB2024 01 01.80182804 34 14.33 +63 29 51.4          19.5 GXEA015958
     K23Y01X KB2024 01 01.81161204 33 54.11 +63 27 28.8          19.7 GXEA015958
     K23Y01X KB2024 01 01.82139504 33 34.00 +63 25 04.8          19.3 GXEA015958
     K23Y01X KC2024 01 01.87614104 31 35.52 +63 11 17.5          19.6 GVEA015L01
     K23Y01X IC2024 01 01.87713104 31 33.44 +63 11 02.2          19.8 GVEA015L01
     K23Y01X IC2024 01 01.87824504 31 31.14 +63 10 44.7          19.6 GVEA015L01
     K23Y01X IC2024 01 01.87923304 31 29.02 +63 10 29.6          19.5 GVEA015L01
     K23Y01X IC2024 01 01.88034704 31 26.79 +63 10 12.1          19.8 GVEA015L01
     K23Y01X KB2024 01 01.89947304 30 47.07 +63 05 09.1                XEA015595
     K23Y01X KB2024 01 01.90522904 30 35.15 +63 03 37.1          19.4 GXEA015595
     K23Y01X KB2024 01 01.91112804 30 23.00 +63 02 04.0                XEA015595
     K23Y01X KC2024 01 01.94184704 29 19.94 +62 53 56.1                VEA015104
     K23Y01X KC2024 01 01.94571104 29 11.94 +62 52 52.7          19.2 GVEA015104
     K23Y01X KC2024 01 01.94938104 29 04.40 +62 51 53.1          19.5 GVEA015104
     K23Y01X KC2024 01 02.74917 04 03 36.89 +58 39 55.3          20.4 VZEA015M63
     K23Y01X KC2024 01 02.75381 04 03 27.51 +58 38 14.6          19.6 VZEA015M63
     K23Y01X KC2024 01 02.75837 04 03 18.22 +58 36 35.4          19.6 VZEA015M63

Observer details:
104 San Marcello Pistoiese.  Observers P. Bacci, M. Maestripieri.  Measurers
    P. Bacci, L. Tesi, G. Fagioli.  0.60-m F4 Reflector + CCD.
204 Schiaparelli Observatory.  Observers L. Buzzi, G. Galli.  0.84-m f/3.5
    reflector + CCD.
595 Farra d'Isonzo.  Observer E. Pettarin.  0.61-m f/4.5 reflector + CCD.
958 Observatoire de Dax.  Observer P. Dupouy.  0.50-m f/4.5 Reflector + CMO.
I52 Steward Observatory, Mt. Lemmon Station.  Observer G. J. Leonard.
    Measurers E. C. Beshore, D. Fay, J. B. Fazekas, D. C. Fuls, A. R. Gibbs,
    A. D. Grauer, H. Groeller, J. K. Hogan, R. A. Kowalski, S. M. Larson, G.
    J. Leonard, D. Rankin, R. L. Seaman, F. C. Shelly, K. W. Wierzchos.  1.0-m
    prime focus + CCD.
L01 Visnjan Observatory, Tican.  Observer K. Korlevic.  1.0-m f/2.9 reflector
    + CCD.
L51 MARGO, Nauchnyi.  Observer G. Borisov.  0.50-m f/1.9 reflector + CCD.
M38 Harsona Observatory, Nyiregyhaza.  Observer T. Elek.  0.20-m f/3 reflector
    + CCD.
M63 RPF Observatory, Gagliano del Capo.  Observer D. Licchelli.  0.30-m f/5.3
    reflector + CCD.

Orbital elements:
2023 YX1                                                 Earth MOID = 0.0073 AU
Epoch 2023 Sept. 13.0 TT = JDT 2460200.5                MPC                     
M 196.98502              (2000.0)            P               Q                  
n   0.89268315     Peri.  272.61651     -0.88254678     +0.28027385             
a   1.0682457      Node   283.86840     -0.08851692     -0.88762090             
e   0.2863700      Incl.   22.88640     -0.46181808     -0.36548010             
P   1.10           H   24.83          G   0.15           U   8                  
Residuals in seconds of arc
231231 L51  0.1+  0.9-    240101 I52  0.2+  0.4+    240101 L01  0.4+  0.1-
231231 L51  0.0   0.4-    240101 I52  0.0   0.3+    240101 L01  0.0   0.2+
231231 L51  0.4+  0.2+    240101 I52  0.0   0.3+    240101 L01  0.5+  0.1+
231231 L51  1.1-  1.3-    240101 I52  0.3+  0.0     240101 595  0.1-  0.1-
231231 L51  0.5+  0.1-    240101 I52  0.2+  0.1+    240101 595  0.0   0.7-
231231 L51  0.2+  0.3+    240101 M38  0.7-  1.1-    240101 595  0.6+  0.1+
240101 204  0.3-  0.1+    240101 M38  0.5-  0.4-    240101 104  0.1-  0.2+
240101 204  0.1-  0.0     240101 958  0.2+  0.9-    240101 104  0.1-  0.2-
240101 204  0.2-  0.1-    240101 958  0.6-  0.3-    240101 104  0.2+  0.2+
240101 I52  0.1+  0.3+    240101 958  0.3-  0.2-    240102 M63  0.2-  0.3+
240101 I52  0.2+  0.0     240101 L01  0.4+  0.2-    240102 M63  0.0   0.1+
240101 I52  0.0   0.2+    240101 L01  0.3+  0.0     240102 M63  0.2-  0.1-

Ephemeris:
2023 YX1                 a,e,i = 1.07, 0.29, 23                  q = 0.7623
Date    TT    R. A. (2000) Decl.     Delta      r    Elong.  Phase     V
2023 12 03    08 56 47.3 +69 07 10   0.2898  1.1549   119.1    48.2    24.3
...
2023 12 18    08 40 45.7 +71 34 47   0.1646  1.0879   125.5    47.4    22.9
...
2023 12 26    07 28 39.0 +72 28 34   0.09922 1.0499   129.9    46.0    21.7
...
2024 01 01    05 00 03.7 +66 21 05   0.05274 1.0205   133.8    44.1    20.2
2024 01 02    04 27 36.0 +62 37 37   0.04570 1.0156   134.0    44.1    19.9
2024 01 03    03 55 31.0 +57 02 21   0.03916 1.0106   133.5    44.9    19.5
...
2024 01 09    01 33 55.8 -24 14 17   0.03284 0.9808    84.6    93.5    20.7
...
2024 01 17    00 14 28.5 -56 47 20   0.08964 0.9412    59.3   116.0    24.0
...
2024 02 01    23 07 07.0 -63 35 35   0.2095  0.8701    51.4   117.7    25.8

A. U. Tomatic                (C) Copyright 2024 MPC           M.P.E.C. 2024-A15





More information about the Iaude mailing list